Location: De Har
(53.3413°N, 6.6858°E)
Time: 08:41:00
(UTC+00:00)

MOZ.5/SAFIR/RUBIN 5/SL-8 - Pass Details

Date: 22 April 2026
Orbit: 665 x 693 km, 98.3° (Epoch: 15 May)

Event Time Altitude Azimuth Distance (km) Brightness Sun altitude
Exits shadow 02:05:37 22° 180° (S) 1,474 5.0 -16.7°
Maximum altitude 02:08:33 64° 257° (WSW) 758 3.7 -16.5°
Drops below altitude 10° 02:13:11 10° 340° (NNW) 2,131 6.7 -16.0°
Sets 02:15:27 0° 343° (NNW) 3,046 7.6 -15.8°
